Погода в Фоделе

Греция     35°22′55″N   24°57′29″E
темп.,
°C
ветер,
м/с
пор.,
м/с
влажн.,
%
обл.,
%
осадки,
мм/ч
давл.,
гПа
погр.,
м
19 апреля, пн
пн1900:00+18вюв4574100 0.0 101438
03:00+18вюв3576100 0.0 101261
06:00+17зсз6683100 0.0 101398
09:00+16з688499 0.0 1015280
12:00+16зсз9108376 0.0 1015375
15:00+16зсз10127846 0.0 1015731
18:00+16зсз1114725 0.0 1014798
21:00+16з1114725 0.0 1016938
20 апреля, вт
вт2000:00+15з11147010 0.0 1016978
03:00+15з1013690 0.0 1015946
06:00+15з1013690 0.0 1015897
09:00+15з1012660 0.0 1017869
12:00+16зсз1112720 0.0 1017776
15:00+16зсз1213730 0.0 1017603
18:00+16зсз11127152 0.0 1017647
21:00+16зсз910690 0.0 1018639
21 апреля, ср
ср2100:00+16з79663 0.0 1018596
03:00+15з79650 0.0 1018639
06:00+15з896918 0.0 1018758
09:00+15з79702 0.0 1019817
12:00+15зсз896997 0.0 1020639
15:00+16сз910710 0.0 1020530
18:00+16зсз9107010 0.0 1020658
21:00+16з78683 0.0 1021606
22 апреля, чт
чт2200:00+16зюз35630 0.0 1021357
03:00+16зюз23520 0.0 1020299
06:00+16зюз13505 0.0 1020327
09:00+16зюз124916 0.0 1021294
12:00+16сз23635 0.0 1022271
15:00+16ссз22640 0.0 1022213
18:00+17в12615 0.0 1021177
21:00+17юв33665 0.0 102185
23 апреля, пт
пт2300:00+17ю22625 0.0 102125
03:00+17в01605 0.0 101914
06:00+17вюв22545 0.0 101827
09:00+17вюв45545 0.0 101884
12:00+17в78635 0.0 1019135
15:00+18в8965100 0.0 1017105
18:00+18в6771100 0.0 101583
21:00+18вюв7872100 0.0 101585